| time (UTC) | temp C | wind direction | speed KPH | gust KPH | rain 1hr cm | rain 24hr cm | rain mn cm | humidity % | barometer mb |
| 20260505011347 | 8 | 87 | 0.0 | 3.2 | 0.00 | 0.03 | 0.03 | 90 | 1005.4 |
| 20260505010843 | 8 | 28 | 3.2 | 4.8 | 0.00 | 0.03 | 0.03 | 90 | 1005.4 |
| 20260505010339 | 8 | 44 | 1.6 | 4.8 | 0.00 | 0.03 | 0.03 | 89 | 1005.2 |
| 20260505005836 | 8 | 114 | 1.6 | 4.8 | 0.00 | 0.03 | 0.03 | 89 | 1005.1 |
| 20260505005333 | 9 | 64 | 3.2 | 3.2 | 0.00 | 0.03 | 0.03 | 89 | 1005.2 |
| 20260505004830 | 9 | 60 | 3.2 | 4.8 | 0.00 | 0.03 | 0.03 | 89 | 1005.1 |
| 20260505004326 | 9 | 116 | 1.6 | 4.8 | 0.00 | 0.03 | 0.03 | 88 | 1005.0 |
| 20260505003824 | 10 | 304 | 0.0 | 4.8 | 0.00 | 0.03 | 0.03 | 87 | 1004.9 |
| 20260505003321 | 10 | 89 | 0.0 | 4.8 | 0.00 | 0.03 | 0.03 | 85 | 1004.9 |
| 20260505002817 | 10 | 62 | 1.6 | 4.8 | 0.00 | 0.03 | 0.03 | 85 | 1004.8 |
| 20260505002314 | 10 | 45 | 1.6 | 3.2 | 0.00 | 0.03 | 0.03 | 84 | 1004.6 |
| 20260505001812 | 11 | 41 | 0.0 | 6.4 | 0.00 | 0.03 | 0.03 | 81 | 1004.8 |
| 20260505001309 | 11 | 94 | 3.2 | 6.4 | 0.00 | 0.03 | 0.03 | 81 | 1004.8 |
| 20260505000806 | 11 | 145 | 4.8 | 8.0 | 0.00 | 0.03 | 0.03 | 79 | 1004.5 |
| 20260505000304 | 11 | 133 | 3.2 | 6.4 | 0.00 | 0.03 | 0.03 | 80 | 1004.6 |
| 20260504235800 | 11 | 78 | 4.8 | 6.4 | 0.00 | 0.03 | 0.03 | 79 | 1004.6 |
| 20260504235257 | 11 | 136 | 4.8 | 4.8 | 0.00 | 0.03 | 0.03 | 79 | 1004.5 |
| 20260504234754 | 12 | 135 | 3.2 | 8.0 | 0.00 | 0.03 | 0.03 | 75 | 1004.4 |
| 20260504234252 | 12 | 132 | 3.2 | 8.0 | 0.00 | 0.03 | 0.03 | 75 | 1004.2 |
| 20260504233748 | 12 | 164 | 6.4 | 8.0 | 0.00 | 0.03 | 0.03 | 76 | 1004.3 |
| 20260504233243 | 12 | 163 | 4.8 | 8.0 | 0.00 | 0.03 | 0.03 | 75 | 1004.2 |
| 20260504232740 | 13 | 134 | 4.8 | 6.4 | 0.00 | 0.03 | 0.03 | 72 | 1004.2 |
| 20260504232237 | 13 | 157 | 4.8 | 8.0 | 0.00 | 0.03 | 0.03 | 71 | 1004.0 |
| 20260504231735 | 13 | 159 | 4.8 | 6.4 | 0.00 | 0.03 | 0.03 | 73 | 1004.2 |
| 20260504231231 | 14 | 154 | 4.8 | 6.4 | 0.00 | 0.03 | 0.03 | 70 | 1003.9 |
| 20260504230727 | 15 | 121 | 3.2 | 4.8 | 0.00 | 0.03 | 0.03 | 59 | 1004.0 |
| 20260504230226 | 16 | 142 | 3.2 | 4.8 | 0.00 | 0.03 | 0.03 | 59 | 1003.8 |
| 20260504225724 | 16 | 137 | 1.6 | 3.2 | 0.00 | 0.03 | 0.03 | 57 | 1003.7 |
| 20260504225220 | 16 | 147 | 1.6 | 4.8 | 0.00 | 0.03 | 0.03 | 56 | 1003.7 |
| 20260504224717 | 16 | 128 | 0.0 | 3.2 | 0.00 | 0.03 | 0.03 | 55 | 1003.6 |
| 20260504224214 | 16 | 82 | 0.0 | 3.2 | 0.00 | 0.03 | 0.03 | 55 | 1003.7 |
| 20260504223710 | 16 | 177 | 3.2 | 4.8 | 0.00 | 0.03 | 0.03 | 54 | 1003.6 |
| 20260504223206 | 16 | 128 | 1.6 | 6.4 | 0.00 | 0.03 | 0.03 | 54 | 1003.6 |
| 20260504222703 | 16 | 345 | 0.0 | 8.0 | 0.00 | 0.03 | 0.03 | 56 | 1003.6 |
| 20260504222200 | 16 | 120 | 0.0 | 4.8 | 0.00 | 0.03 | 0.03 | 55 | 1003.7 |
| 20260504221657 | 16 | 321 | 1.6 | 3.2 | 0.00 | 0.03 | 0.03 | 55 | 1003.6 |
| 20260504221155 | 16 | 345 | 3.2 | 8.0 | 0.00 | 0.03 | 0.03 | 55 | 1003.6 |
| 20260504220651 | 16 | 207 | 3.2 | 6.4 | 0.00 | 0.03 | 0.03 | 53 | 1003.5 |
| 20260504220149 | 16 | 149 | 6.4 | 11.3 | 0.00 | 0.03 | 0.03 | 53 | 1003.6 |
| 20260504215645 | 16 | 96 | 0.0 | 22.5 | 0.00 | 0.03 | 0.03 | 55 | 1003.8 |
| 20260504215142 | 16 | 349 | 9.7 | 11.3 | 0.00 | 0.03 | 0.03 | 54 | 1003.7 |
| 20260504214638 | 16 | 46 | 6.4 | 14.5 | 0.00 | 0.03 | 0.03 | 54 | 1003.6 |
| 20260504214134 | 16 | 277 | 3.2 | 14.5 | 0.00 | 0.03 | 0.03 | 53 | 1003.6 |
| 20260504213631 | 17 | 232 | 6.4 | 14.5 | 0.00 | 0.03 | 0.03 | 54 | 1003.6 |
| 20260504213128 | 16 | 14 | 6.4 | 14.5 | 0.00 | 0.03 | 0.03 | 53 | 1003.5 |
| 20260504212624 | 16 | 9 | 3.2 | 9.7 | 0.00 | 0.03 | 0.03 | 55 | 1003.5 |
| 20260504212121 | 16 | 5 | 12.9 | 12.9 | 0.00 | 0.03 | 0.03 | 54 | 1003.6 |
| 20260504211619 | 16 | 127 | 0.0 | 11.3 | 0.00 | 0.03 | 0.03 | 58 | 1003.6 |
| 20260504211115 | 17 | 31 | 6.4 | 11.3 | 0.00 | 0.03 | 0.03 | 56 | 1003.4 |
| 20260504210613 | 18 | 354 | 11.3 | 12.9 | 0.00 | 0.03 | 0.03 | 54 | 1003.2 |
| 20260504210109 | 17 | 176 | 6.4 | 9.7 | 0.00 | 0.03 | 0.03 | 57 | 1003.3 |
| 20260504205607 | 16 | 111 | 0.0 | 8.0 | 0.00 | 0.03 | 0.03 | 57 | 1003.5 |
| 20260504205104 | 16 | 161 | 3.2 | 8.0 | 0.00 | 0.03 | 0.03 | 58 | 1003.3 |
| 20260504204602 | 17 | 152 | 4.8 | 14.5 | 0.00 | 0.03 | 0.03 | 56 | 1003.4 |
| 20260504204101 | 17 | 191 | 4.8 | 12.9 | 0.00 | 0.03 | 0.03 | 55 | 1003.2 |
| 20260504203559 | 17 | 262 | 3.2 | 8.0 | 0.00 | 0.03 | 0.03 | 56 | 1003.2 |
| 20260504203056 | 17 | 190 | 6.4 | 17.7 | 0.00 | 0.03 | 0.03 | 56 | 1003.2 |
| 20260504202551 | 17 | 350 | 6.4 | 11.3 | 0.00 | 0.03 | 0.03 | 60 | 1003.1 |
| 20260504202048 | 17 | 150 | 4.8 | 11.3 | 0.00 | 0.03 | 0.03 | 60 | 1003.3 |
| 20260504201545 | 16 | 202 | 8.0 | 24.1 | 0.00 | 0.03 | 0.03 | 60 | 1003.4 |
| 20260504201043 | 16 | 212 | 3.2 | 14.5 | 0.00 | 0.03 | 0.03 | 60 | 1003.3 |
| 20260504200539 | 16 | 22 | 4.8 | 8.0 | 0.00 | 0.03 | 0.03 | 63 | 1003.6 |
| 20260504200036 | 16 | 152 | 4.8 | 17.7 | 0.00 | 0.03 | 0.03 | 61 | 1003.5 |
| 20260504195532 | 16 | 350 | 0.0 | 20.9 | 0.00 | 0.03 | 0.03 | 62 | 1003.4 |
| 20260504195029 | 16 | 245 | 3.2 | 12.9 | 0.00 | 0.03 | 0.03 | 59 | 1003.2 |
| 20260504194525 | 16 | 324 | 0.0 | 9.7 | 0.00 | 0.03 | 0.03 | 63 | 1003.5 |
| 20260504194021 | 16 | 221 | 6.4 | 14.5 | 0.00 | 0.03 | 0.03 | 64 | 1003.3 |
| 20260504193518 | 16 | 133 | 17.7 | 17.7 | 0.00 | 0.03 | 0.03 | 62 | 1003.5 |
| 20260504193017 | 15 | 3 | 3.2 | 17.7 | 0.00 | 0.03 | 0.03 | 63 | 1003.4 |
| 20260504192514 | 15 | 7 | 9.7 | 17.7 | 0.00 | 0.03 | 0.03 | 63 | 1003.4 |
| 20260504192013 | 15 | 251 | 1.6 | 11.3 | 0.00 | 0.03 | 0.03 | 68 | 1003.0 |
| 20260504191510 | 14 | 224 | 4.8 | 12.9 | 0.00 | 0.03 | 0.03 | 70 | 1003.3 |
| 20260504191006 | 14 | 150 | 0.0 | 16.1 | 0.00 | 0.03 | 0.03 | 71 | 1003.4 |
| 20260504190502 | 14 | 200 | 4.8 | 8.0 | 0.00 | 0.03 | 0.03 | 75 | 1003.6 |
| 20260504185958 | 13 | 199 | 0.0 | 9.7 | 0.00 | 0.03 | 0.03 | 75 | 1003.7 |
| 20260504185455 | 13 | 235 | 1.6 | 9.7 | 0.00 | 0.03 | 0.03 | 75 | 1003.9 |
| 20260504184952 | 13 | 280 | 3.2 | 14.5 | 0.00 | 0.03 | 0.03 | 76 | 1003.9 |
| 20260504184447 | 13 | 232 | 3.2 | 6.4 | 0.00 | 0.03 | 0.03 | 76 | 1004.0 |
| 20260504183943 | 13 | 197 | 1.6 | 4.8 | 0.00 | 0.03 | 0.03 | 78 | 1003.9 |
| 20260504183440 | 13 | 92 | 0.0 | 11.3 | 0.00 | 0.03 | 0.03 | 79 | 1004.0 |
| 20260504182938 | 13 | 23 | 3.2 | 8.0 | 0.00 | 0.03 | 0.03 | 81 | 1004.3 |
| 20260504182435 | 13 | 1 | 3.2 | 6.4 | 0.05 | 0.03 | 0.03 | 82 | 1004.1 |
| 20260504181933 | 12 | 113 | 1.6 | 9.7 | 0.05 | 0.03 | 0.03 | 84 | 1004.4 |
| 20260504181429 | 11 | 101 | 1.6 | 8.0 | 0.05 | 0.00 | 0.00 | 84 | 1004.5 |
| 20260504180928 | 12 | 80 | 0.0 | 11.3 | 0.05 | 0.00 | 0.00 | 82 | 1004.5 |
| 20260504180426 | 12 | 147 | 3.2 | 8.0 | 0.00 | 0.00 | 0.00 | 80 | 1004.4 |
| 20260504175924 | 12 | 313 | 8.0 | 14.5 | 0.00 | 0.00 | 0.00 | 77 | 1004.3 |
| 20260504175421 | 13 | 322 | 0.0 | 11.3 | 0.00 | 0.00 | 0.00 | 79 | 1004.1 |
| 20260504174919 | 13 | 171 | 3.2 | 9.7 | 0.00 | 0.00 | 0.00 | 65 | 1003.8 |
| 20260504174416 | 13 | 127 | 4.8 | 4.8 | 0.00 | 0.00 | 0.00 | 69 | 1003.8 |
| 20260504173913 | 13 | 175 | 4.8 | 9.7 | 0.00 | 0.00 | 0.00 | 63 | 1003.4 |
| 20260504173409 | 14 | 330 | 3.2 | 6.4 | 0.00 | 0.00 | 0.00 | 61 | 1003.3 |
| 20260504172907 | 15 | 109 | 8.0 | 20.9 | 0.00 | 0.00 | 0.00 | 59 | 1003.0 |
| 20260504172403 | 15 | 262 | 3.2 | 12.9 | 0.00 | 0.00 | 0.00 | 57 | 1003.1 |
| 20260504171859 | 15 | 348 | 3.2 | 9.7 | 0.00 | 0.00 | 0.00 | 57 | 1002.9 |
| 20260504171357 | 15 | 109 | 8.0 | 20.9 | 0.00 | 0.00 | 0.00 | 58 | 1002.9 |
| 20260504170854 | 16 | 64 | 1.6 | 11.3 | 0.00 | 0.00 | 0.00 | 55 | 1003.1 |
| 20260504170350 | 15 | 225 | 4.8 | 12.9 | 0.00 | 0.00 | 0.00 | 57 | 1002.8 |
| 20260504160309 | 14 | 355 | 0.0 | 8.0 | 0.00 | 0.00 | 0.00 | 60 | 1002.9 |
| 20260504150734 | 13 | 323 | 1.6 | 11.3 | 0.00 | 0.00 | 0.00 | 57 | 1004.0 |
| 20260504150231 | 13 | 295 | 6.4 | 11.3 | 0.00 | 0.00 | 0.00 | 57 | 1004.1 |
| 20260504141200 | 12 | 17 | 0.0 | 14.5 | 0.00 | 0.00 | 0.00 | 54 | 1004.9 |
| 20260504140657 | 12 | 1 | 3.2 | 17.7 | 0.00 | 0.00 | 0.00 | 52 | 1004.9 |
| 20260504140152 | 12 | 218 | 0.0 | 20.9 | 0.00 | 0.00 | 0.00 | 59 | 1004.8 |
| 20260504130621 | 11 | 226 | 6.4 | 11.3 | 0.00 | 0.00 | 0.00 | 52 | 1005.5 |
| 20260504130118 | 11 | 325 | 1.6 | 14.5 | 0.00 | 0.00 | 0.00 | 56 | 1005.4 |
| 20260504110509 | 6 | 143 | 4.8 | 17.7 | 0.00 | 0.00 | 0.00 | 64 | 1006.0 |
| 20260504100425 | 3 | 158 | 8.0 | 11.3 | 0.00 | 0.00 | 0.00 | 76 | 1005.4 |
| 20260504081818 | 3 | 129 | 8.0 | 9.7 | 0.00 | 0.00 | 0.00 | 78 | 1004.9 |
| 20260504081315 | 3 | 126 | 4.8 | 11.3 | 0.00 | 0.00 | 0.00 | 76 | 1004.9 |
| 20260504080810 | 3 | 161 | 4.8 | 11.3 | 0.00 | 0.00 | 0.00 | 77 | 1004.7 |
| 20260504080308 | 3 | 158 | 9.7 | 9.7 | 0.00 | 0.00 | 0.00 | 76 | 1004.9 |
| 20260504070235 | 3 | 134 | 4.8 | 11.3 | 0.00 | 0.00 | 0.00 | 77 | 1004.8 |
| 20260504060155 | 3 | 135 | 4.8 | 8.0 | 0.00 | 0.00 | 0.00 | 78 | 1004.7 |
| 20260504050623 | 4 | 114 | 3.2 | 9.7 | 0.00 | 0.00 | 0.00 | 71 | 1004.3 |
| 20260504050121 | 5 | 157 | 6.4 | 16.1 | 0.00 | 0.00 | 0.00 | 69 | 1004.3 |
| 20260504045618 | 5 | 165 | 8.0 | 9.7 | 0.00 | 0.00 | 0.00 | 69 | 1004.2 |
| 20260504045112 | 5 | 151 | 3.2 | 8.0 | 0.00 | 0.00 | 0.00 | 68 | 1004.0 |
| 20260504044610 | 5 | 52 | 9.7 | 9.7 | 0.00 | 0.00 | 0.00 | 68 | 1004.0 |
| 20260504044107 | 5 | 5 | 4.8 | 12.9 | 0.00 | 0.00 | 0.00 | 68 | 1004.1 |
| 20260504043604 | 5 | 121 | 0.0 | 11.3 | 0.00 | 0.00 | 0.00 | 68 | 1004.2 |
| 20260504043101 | 5 | 99 | 6.4 | 6.4 | 0.00 | 0.00 | 0.00 | 67 | 1004.0 |
| 20260504042558 | 5 | 52 | 3.2 | 14.5 | 0.00 | 0.00 | 0.00 | 68 | 1004.0 |
| 20260504042055 | 5 | 31 | 3.2 | 8.0 | 0.00 | 0.00 | 0.00 | 67 | 1003.9 |
| 20260504041551 | 5 | 109 | 4.8 | 20.9 | 0.00 | 0.00 | 0.00 | 70 | 1004.0 |
| 20260504041047 | 5 | 6 | 6.4 | 8.0 | 0.00 | 0.00 | 0.00 | 69 | 1003.9 |
| 20260504040545 | 5 | 357 | 3.2 | 12.9 | 0.00 | 0.00 | 0.00 | 68 | 1003.9 |
| 20260504040041 | 5 | 99 | 8.0 | 11.3 | 0.00 | 1.52 | 1.52 | 67 | 1003.9 |
| 20260504035538 | 5 | 344 | 4.8 | 12.9 | 0.00 | 1.52 | 1.52 | 67 | 1003.9 |
| 20260504035034 | 5 | 180 | 6.4 | 14.5 | 0.00 | 1.52 | 1.52 | 68 | 1003.8 |
| 20260504034533 | 5 | 88 | 4.8 | 8.0 | 0.00 | 1.52 | 1.52 | 68 | 1003.7 |
| 20260504034029 | 5 | 256 | 3.2 | 6.4 | 0.00 | 1.52 | 1.52 | 69 | 1003.9 |
| 20260504033527 | 5 | 12 | 6.4 | 8.0 | 0.00 | 1.52 | 1.52 | 68 | 1003.7 |
| 20260504033024 | 5 | 118 | 8.0 | 12.9 | 0.00 | 1.52 | 1.52 | 67 | 1003.4 |
| 20260504032521 | 5 | 291 | 4.8 | 9.7 | 0.00 | 1.52 | 1.52 | 65 | 1003.6 |
| 20260504032018 | 5 | 25 | 8.0 | 11.3 | 0.00 | 1.52 | 1.52 | 66 | 1003.6 |
| 20260504031515 | 5 | 12 | 1.6 | 9.7 | 0.00 | 1.52 | 1.52 | 65 | 1003.5 |
| 20260504031011 | 5 | 51 | 4.8 | 11.3 | 0.00 | 1.52 | 1.52 | 65 | 1003.4 |
| 20260504030509 | 5 | 180 | 3.2 | 9.7 | 0.00 | 1.52 | 1.52 | 65 | 1003.3 |
| 20260504030004 | 5 | 166 | 4.8 | 9.7 | 0.00 | 1.52 | 1.52 | 65 | 1003.7 |
| 20260504025502 | 5 | 18 | 1.6 | 11.3 | 0.00 | 1.52 | 1.52 | 64 | 1003.5 |
| 20260504024958 | 5 | 2 | 0.0 | 8.0 | 0.00 | 1.52 | 1.52 | 64 | 1003.4 |
| 20260504024455 | 5 | 86 | 3.2 | 6.4 | 0.00 | 1.52 | 1.52 | 66 | 1003.3 |
| 20260504023953 | 5 | 99 | 3.2 | 11.3 | 0.00 | 1.52 | 1.52 | 64 | 1003.5 |
| 20260504023449 | 5 | 66 | 3.2 | 11.3 | 0.00 | 1.52 | 1.52 | 65 | 1003.2 |
| 20260504022944 | 5 | 47 | 3.2 | 9.7 | 0.00 | 1.52 | 1.52 | 64 | 1003.1 |
| 20260504022441 | 5 | 123 | 4.8 | 6.4 | 0.00 | 1.52 | 1.52 | 66 | 1003.1 |
| 20260504021938 | 5 | 110 | 3.2 | 11.3 | 0.00 | 1.52 | 1.52 | 64 | 1003.4 |
| 20260504021435 | 5 | 5 | 8.0 | 12.9 | 0.00 | 1.52 | 1.52 | 63 | 1003.2 |
| 20260504020932 | 5 | 44 | 9.7 | 11.3 | 0.00 | 1.52 | 1.52 | 65 | 1003.1 |
| 20260504020428 | 5 | 12 | 3.2 | 17.7 | 0.00 | 1.52 | 1.52 | 64 | 1003.3 |
| 20260504015925 | 5 | 24 | 8.0 | 25.7 | 0.00 | 1.52 | 1.52 | 63 | 1003.1 |
| 20260504015421 | 5 | 62 | 3.2 | 6.4 | 0.00 | 1.52 | 1.52 | 64 | 1003.1 |
| 20260504014917 | 5 | 74 | 3.2 | 9.7 | 0.00 | 1.52 | 1.52 | 63 | 1003.0 |
| 20260504014413 | 6 | 77 | 4.8 | 6.4 | 0.00 | 1.52 | 1.52 | 64 | 1003.3 |
| 20260504013910 | 6 | 179 | 0.0 | 11.3 | 0.00 | 1.52 | 1.52 | 62 | 1003.0 |
| 20260504013409 | 6 | 21 | 8.0 | 14.5 | 0.00 | 1.52 | 1.52 | 64 | 1002.9 |
| 20260504012905 | 6 | 50 | 4.8 | 11.3 | 0.00 | 1.52 | 1.52 | 63 | 1003.2 |
| 20260504012403 | 6 | 46 | 4.8 | 17.7 | 0.00 | 1.52 | 1.52 | 62 | 1002.8 |
| 20260504011900 | 6 | 45 | 4.8 | 9.7 | 0.00 | 1.52 | 1.52 | 64 | 1002.6 |